AirNav   Everest Fuels
 
 962 users online  

0NE3 Syracuse Hospital Heliport
Syracuse, Nebraska, USA

GOING TO SYRACUSE?


FAA INFORMATION EFFECTIVE 18 JUNE 2020

Location

FAA Identifier: 0NE3
Lat/Long: 40-40-02.0050N 096-11-11.0310W
40-40.033417N 096-11.183850W
40.6672236,-96.1863975
(estimated)
Elevation: 1120 ft. / 341 m (estimated)
Variation: 06E (1985)
Time zone: UTC -5 (UTC -6 during Standard Time)
Zip code: 68446

Heliport Operations

Heliport use: Private use, MEDICAL USE.
Activation date: 06/1991
Control tower: no
ARTCC: MINNEAPOLIS CENTER
FSS: COLUMBUS FLIGHT SERVICE STATION
Attendance: MON-FRI 0800-1600
Wind indicator: yes
Segmented circle: no
Lights: FOR PERIMETER LGTS CALL 402-269-2011.

Heliport Communications

WX AWOS-3PT at AFK (15 nm E): 128.325 (402-873-7375)

Nearby radio navigation aids

VOR radial/distance  VOR name  Freq  Var
PWEr357/28.0PAWNEE CITY VORTAC112.4005E
LNKr112/29.6LINCOLN VORTAC116.1009E
BIEr043/(34.0)BEATRICE VOR110.6007E
OVRr206/36.3OMAHA VORTAC116.3008E

 
NDB name  Hdg/Dist  Freq  Var  ID
NEBRASKA CITY279/15.334705EAFK .- ..-. -.-
PLATTSMOUTH212/20.732905EPMV .--. -- ...-
WAHOO145/39.140006EAHQ .- .... --.-

Heliport Services

Runway Information

Helipad H1

Dimensions: 40 x 40 ft. / 12 x 12 m
Surface: concrete
Runway edge lights: PERI
Latitude: 40-40.033417N
Longitude: 096-11.183850W
Elevation: 1120.0 ft.
Traffic pattern: leftleft

Heliport Ownership and Management from official FAA records

Ownership: Privately-owned
Owner: COMMUNITY MEMORIAL HOSPITAL
1579 MIDLAND ST
SYRACUSE, NE 68446
Phone 402-269-2011
Manager: MICHAEL HARVEY
1579 MIDLAND ST
SYRACUSE, NE 68446
Phone 402-269-2011

Additional Remarks

OWNER DESIRES HELIPAD NOT BE CHARTED.
FOR CD CTC OMAHA APCH AT 402-682-4395.

Instrument Procedures

There are no published instrument procedures at 0NE3.

Some nearby airports with instrument procedures:

KAFK - Nebraska City Municipal Airport (15 nm E)
0G3 - Tecumseh Municipal Airport (16 nm S)
KPMV - Plattsmouth Municipal Airport (21 nm NE)
K01 - Farington Field Airport (25 nm SE)
KLNK - Lincoln Airport (28 nm NW)
 
Loc | Ops | Rwys | IFR | FBO | Links
Com | Nav | Svcs | Stats | Notes

Silverhawk Aviation, Inc.
AirBoss

 
Area around 0NE3 (Syracuse Hospital Heliport)
 
Road maps at: MapQuest Bing Google
 
Aerial photo
No photo
 
Sectional chart

 
Airport distance calculator
Flying to Syracuse Hospital Heliport? Find the distance to fly.

From to 0NE3

Sunrise and sunset
Times for 07-Jul-2020
 Local
(UTC-5)
 Zulu
(UTC)
Morning civil twilight05:3010:30
Sunrise06:0211:02
Sunset20:5701:57
Evening civil twilight21:3002:30

Current date and time
Zulu (UTC)  08-Jul-2020 02:45:14
Local (UTC-5)  07-Jul-2020 21:45:14
 
METAR
KAFK 
15nm E 
080235Z AUTO 16003KT 10SM CLR 27/25 A2989 RMK AO2 T02680253
KPMV 
21nm NE 
080235Z AUTO 15004KT 10SM CLR 27/23 A2988 RMK AO2 T02670230
KLNK 
28nm W 
080154Z 16008KT 10SM CLR 29/21 A2987 RMK AO2 SLP101 T02890211
KOFF 
30nm NE 
080156Z AUTO 14007KT 10SM CLR 29/23 A2986 RMK AO2 SLPNO T02900229 $
TAF
KLNK 
28nm W 
071720Z 0718/0818 17009KT P6SM FEW060 FEW200 FM072200 18009KT P6SM SKC
KOFF 
30nm NE 
072000Z 0720/0824 18012KT 9999 FEW180 QNH2990INS BECMG 0800/0801 15009KT 9999 SKC QNH2984INS BECMG 0813/0814 19012G20KT 9999 SCT050 QNH2982INS TX34/0722Z TN22/0810Z
NOTAMs
Click for the latest NOTAMs
NOTAMs are issued by the DoD/FAA and will open in a separate window not controlled by AirNav.

 

 
 

Would you like to see your business listed on this page?

 If your business provides an interesting product or service to pilots, flight crews, aircraft, or users of the Syracuse Hospital Heliport, you should consider listing it here.  To start the listing process, click on the button below
 
Add a business
 

Other Pages about Syracuse Hospital Heliport

Update a link
 
Copyright © AirNav, LLC. All rights reserved. Privacy Policy  Contact